Voltar ao catálogo

LEMUR 2 THEFALCONER

AtivoMeteoSSO
NORAD 63264·PAYLOAD·🇺🇸 United States

Lançado Mar 15, 2025 de Vandenberg Space Force Base

Loading…

Próximas Passagens (próximas 24 horas)

TLE

AtualizadoSource: Space-Track

Época: Sep 13, 2026, 22:33 UTC

1 63264U 25052BG  26256.93965704  .00000460  00000-0  44034-4 0  9998
2 63264  97.6728 147.8295 0003529  66.0533 294.1059 14.97798265 81973

Acompanhe LEMUR 2 THEFALCONER em tempo real com AllMySat

Download on the App Store